FW8074 Weather Reports


Display with metric or nautical units.
time (UTC)temp
F
wind
direction
speed
MPH
gust
MPH
rain 1hr
in
rain 24hr
in
rain mn
in
humidity
%
barometer
mb
20260905021607 79 0 0.0 0.0 0.00 0.00 0.00 88 1011.7
20260905020103 79 0 0.0 0.0 0.00 0.00 0.00 87 1011.7
20260905014606 79 0 0.0 0.0 0.00 0.00 0.00 87 1011.4
20260905013105 80 0 0.0 0.0 0.00 0.00 0.00 86 1011.0
20260905011605 80 0 0.0 0.0 0.00 0.00 0.00 85 1010.9
20260905010109 81 0 0.0 0.0 0.00 0.00 0.00 82 1011.1
20260905004610 82 0 0.0 0.0 0.00 0.00 0.00 81 1011.0
20260905003108 83 0 0.0 0.0 0.00 0.00 0.00 79 1011.2
20260905001602 84 0 0.0 0.0 0.00 0.00 0.00 78 1010.9
20260905000109 85 0 0.0 0.0 0.00 0.00 0.00 76 1010.8
20260904234608 86 0 0.0 0.0 0.00 0.00 0.00 75 1010.3
20260904233109 87 0 0.0 0.0 0.00 0.00 0.00 73 1010.2
20260904231608 88 0 0.0 0.0 0.00 0.00 0.00 71 1010.0
20260904230113 89 0 0.0 0.0 0.00 0.00 0.00 70 1009.9
20260904224610 90 0 0.0 0.0 0.00 0.00 0.00 69 1010.1
20260904223100 92 0 0.0 0.0 0.00 0.00 0.00 67 1010.0
20260904221609 93 0 0.0 0.0 0.00 0.00 0.00 64 1010.2
20260904220107 93 0 0.0 0.0 0.00 0.00 0.00 60 1010.3
20260904214607 94 0 0.0 0.0 0.00 0.00 0.00 61 1010.2
20260904213108 94 0 0.0 0.0 0.00 0.00 0.00 59 1010.3
20260904211607 93 0 0.0 0.0 0.00 0.00 0.00 62 1010.3
20260904210104 93 0 0.0 0.0 0.00 0.00 0.00 61 1010.4
20260904204604 94 0 0.0 0.0 0.00 0.00 0.00 63 1010.8
20260904203101 93 0 0.0 0.0 0.00 0.00 0.00 62 1011.0
20260904201606 93 0 0.0 0.0 0.00 0.00 0.00 62 1011.2
20260904200116 93 0 0.0 0.0 0.00 0.00 0.00 63 1011.3
20260904194606 93 0 0.0 0.0 0.00 0.00 0.00 67 1011.5
20260904193109 93 0 0.0 0.0 0.00 0.00 0.00 65 1011.9
20260904191602 94 0 0.0 0.0 0.00 0.00 0.00 61 1012.0
20260904190111 94 0 0.0 0.0 0.00 0.00 0.00 61 1012.4
20260904184625 94 0 0.0 0.0 0.00 0.00 0.00 62 1012.5
20260904183106 93 0 0.0 0.0 0.00 0.00 0.00 61 1012.9
20260904181603 94 0 0.0 0.0 0.00 0.00 0.00 63 1012.9
20260904180108 93 0 0.0 0.0 0.00 0.00 0.00 64 1012.8
20260904174605 92 0 0.0 0.0 0.00 0.00 0.00 65 1013.0
20260904173108 91 0 0.0 0.0 0.00 0.00 0.00 69 1013.2
20260904171607 91 0 0.0 0.0 0.00 0.00 0.00 68 1013.3
20260904170107 90 0 0.0 0.0 0.00 0.00 0.00 69 1013.6
20260904164609 90 0 0.0 0.0 0.00 0.00 0.00 70 1013.7
20260904163101 90 0 0.0 0.0 0.00 0.00 0.00 69 1013.8
20260904161609 90 0 0.0 0.0 0.00 0.00 0.00 71 1013.8
20260904160107 89 0 0.0 0.0 0.00 0.00 0.00 75 1014.2
20260904154618 88 0 0.0 0.0 0.00 0.00 0.00 75 1014.2
20260904153104 87 0 0.0 0.0 0.00 0.00 0.00 76 1014.3
20260904151605 87 0 0.0 0.0 0.00 0.00 0.00 77 1014.3
20260904150100 85 0 0.0 0.0 0.00 0.00 0.00 82 1014.2
20260904144604 86 0 0.0 0.0 0.00 0.00 0.00 81 1014.4
20260904143105 85 0 0.0 0.0 0.00 0.00 0.00 84 1014.2
20260904141604 84 0 0.0 0.0 0.00 0.00 0.00 85 1014.3
20260904140111 83 0 0.0 0.0 0.00 0.00 0.00 88 1014.3
20260904134616 82 0 0.0 0.0 0.00 0.00 0.00 90 1014.2
20260904133106 81 0 0.0 0.0 0.00 0.00 0.00 92 1014.2
20260904131604 80 0 0.0 0.0 0.00 0.00 0.00 95 1014.4
20260904124617 77 0 0.0 0.0 0.00 0.00 0.00 100 1014.3
20260904123116 75 0 0.0 0.0 0.00 0.00 0.00 100 1014.2
20260904121604 74 0 0.0 0.0 0.00 0.00 0.00 99 1014.3
20260904114605 73 0 0.0 0.0 0.00 0.00 0.00 99 1014.1
20260904113105 72 0 0.0 0.0 0.00 0.00 0.00 99 1014.0
20260904111606 72 0 0.0 1.0 0.00 0.00 0.00 99 1013.9
20260904110106 73 0 0.0 0.0 0.00 0.00 0.00 98 1013.8
20260904104603 73 0 0.0 0.0 0.00 0.00 0.00 98 1013.6
20260904103104 73 0 0.0 0.0 0.00 0.00 0.00 99 1013.5
20260904101604 73 0 0.0 0.0 0.00 0.00 0.00 98 1013.3
20260904100108 73 0 0.0 0.0 0.00 0.00 0.00 98 1013.4
20260904094611 73 0 0.0 0.0 0.00 0.00 0.00 98 1013.3
20260904093106 73 0 0.0 0.0 0.00 0.00 0.00 98 1013.1
20260904091604 73 0 0.0 0.0 0.00 0.00 0.00 98 1013.1
20260904090108 74 0 0.0 0.0 0.00 0.00 0.00 98 1013.0
20260904084606 74 0 0.0 0.0 0.00 0.00 0.00 98 1013.0
20260904083149 74 0 0.0 0.0 0.00 0.00 0.00 98 1012.9
20260904081610 74 0 0.0 0.0 0.00 0.00 0.00 97 1013.0
20260904080104 74 0 0.0 0.0 0.00 0.00 0.00 97 1013.0
20260904074602 74 0 0.0 0.0 0.00 0.00 0.00 97 1013.0
20260904073101 75 0 0.0 0.0 0.00 0.00 0.00 97 1012.9
20260904071623 75 0 0.0 0.0 0.00 0.00 0.00 97 1013.0
20260904070118 75 0 0.0 0.0 0.00 0.00 0.00 96 1013.1
20260904064606 75 0 0.0 0.0 0.00 0.00 0.00 96 1013.2
20260904063108 75 0 0.0 0.0 0.00 0.00 0.00 96 1013.3
20260904061611 76 0 0.0 0.0 0.00 0.00 0.00 95 1013.5
20260904060107 76 0 0.0 0.0 0.00 0.00 0.00 95 1013.7
20260904054608 76 0 0.0 0.0 0.00 0.00 0.00 94 1013.8
20260904053108 76 0 0.0 0.0 0.00 0.00 0.00 94 1014.0
20260904051607 76 0 0.0 0.0 0.00 0.00 0.00 93 1013.9
20260904050109 76 0 0.0 0.0 0.00 0.00 0.00 92 1014.1
20260904044600 77 0 0.0 0.0 0.00 0.00 0.00 92 1014.1
20260904043111 77 0 0.0 0.0 0.00 0.00 0.00 91 1014.2
20260904041608 77 0 0.0 0.0 0.00 0.00 0.00 90 1014.2
20260904040111 77 0 0.0 0.0 0.00 0.00 0.00 89 1014.3
20260904034609 78 0 0.0 0.0 0.00 0.00 0.00 88 1014.3
20260904033104 78 0 0.0 0.0 0.00 0.00 0.00 87 1014.3
20260904031609 78 0 0.0 0.0 0.00 0.00 0.00 86 1014.3
20260904030104 79 0 0.0 0.0 0.00 0.00 0.00 85 1014.4
20260904024604 79 0 0.0 0.0 0.00 0.00 0.00 84 1014.4
20260904023109 80 0 0.0 0.0 0.00 0.00 0.00 83 1014.3